Location: ???????
(55.3754°N, 39.3545°E)
Time: 10:47:11
(UTC+00:00)

Cosmos 1833 Rocket - Pass Details

Date: 14 April 2026
Orbit: 831 x 839 km, 71.0° (Epoch: 19 May)

Event Time Altitude Azimuth Distance (km) Brightness Sun altitude
Exits shadow 21:54:08 31° 118° (ESE) 1,418 3.7 -24.6°
Maximum altitude 21:54:40 32° 107° (ESE) 1,401 3.7 -24.6°
Drops below altitude 10° 21:59:34 10° 47° (NE) 2,451 5.8 -24.5°
Sets 22:02:14 0° 37° (NE) 3,391 6.9 -24.4°
